Weather in Chernivtsi

Ukraine / Chernovtci District     48°17′31″N   25°56′06″E
temp.,
°C
wind,
m/s
gust,
m/s
humid.,
%
clouds,
%
prec.,
mm/h
press.,
hPa
HPBL,
m
1 march, mon
mon123:00+3nw71478100 0.1 1027964
02:00+2nw71397100 4.1 1027698
05:00+2nw4997100 2.1 1028467
08:00+2nw4998100 2.6 1030552
11:00+3nnw5886100 0.7 1031743
14:00+4n477896 1.0 1032863
17:00+4nw367795 0.1 1033516
20:00+3nw388398 0.2 1034368
2 march, tue
tue223:00+2w3692100 0.1 1035249
02:000w239163 0.1 103651
05:000w35863 0.0 1034111
08:00+1wnw38771 0.0 1034296
11:00+6wnw59565 0.0 1031542
14:00+10nw711503 0.0 1030781
17:00+9nw613570 0.0 1028647
20:00+6nw516780 0.0 1029504
3 march, wed
wed323:00+5nw718720 0.0 1031589
02:00+3wnw614800 0.0 1031407
05:00+2wnw411890 0.0 1031295
08:00+1wnw369110 0.0 1032259
11:00+5nw358170 0.0 1032512
14:00+7nw457385 0.0 1030753
17:00+6nnw237563 0.0 1028442
20:00+3s128731 0.0 102922
4 march, thu
thu423:00+2sse23900 0.0 102727
02:00+2sse23900 0.0 102527
05:00+1s12830 0.0 102322
08:00+3wsw11700 0.0 102122
11:00+9nw23490 0.0 1018304
14:00+12nw24404 0.0 1016840
17:00+11nw245016 0.0 1014123
20:00+7sw226414 0.0 101425
5 march, fri
fri523:00+5sw22660 0.0 101422
02:00+4wsw226626 0.0 101322
05:00+4ssw236791 0.0 101241
08:00+6sw476296 0.0 1011166
11:00+9ssw5954100 0.0 1009581
14:00+12wsw41145100 0.0 10081633
17:00+10w5956100 0.0 1009466
20:00+6nw4108788 0.6 1011674